When you browse on this site, cookies collect data to enhance your experience and personalize the content and advertising you see.
Visit our Privacy Policy to learn more. By continuing to use the site, you agree to this use of cookies and data.
  • en France
  • Liste des pays
  • À 7 jours
  • Température de l'eau
  • Carte météo
  • Widgets météo
  • user-avatar
    Se connecter

    Météo par heure à Toronto

    Ce jour, 9 Avril, Jeudi

    Heure Température Précipitation Vent Pression Humidité
    00:00 +9°C° 0.2 mm 2 m/s 737 mmHg 68%
    01:00 +8°C° 0.2 mm 2 m/s 736 mmHg 73%
    02:00 +8°C° 1.5 mm 2 m/s 735 mmHg 79%
    03:00 +8°C° 1.5 mm 3 m/s 734 mmHg 85%
    04:00 +8°C° 1.5 mm 3 m/s 733 mmHg 90%
    05:00 +5°C° 1.2 mm 5 m/s 733 mmHg 86%
    06:00 +3°C° 1.2 mm 7 m/s 733 mmHg 82%
    07:00 0°C° 1.2 mm 9 m/s 733 mmHg 78%
    08:00 +1°C° 0 mm 9 m/s 733 mmHg 71%
    09:00 +2°C° 0 mm 8 m/s 733 mmHg 65%
    10:00 +4°C° 0 mm 7 m/s 734 mmHg 58%
    11:00 +5°C° 0 mm 8 m/s 734 mmHg 52%
    12:00 +6°C° 0 mm 9 m/s 734 mmHg 46%
    13:00 +7°C° 0 mm 9 m/s 734 mmHg 39%
    14:00 +6°C° 0 mm 9 m/s 734 mmHg 40%
    15:00 +6°C° 0 mm 9 m/s 734 mmHg 40%
    16:00 +6°C° 0 mm 8 m/s 733 mmHg 40%
    17:00 +5°C° 0 mm 8 m/s 733 mmHg 44%
    18:00 +2°C° 0 mm 8 m/s 733 mmHg 48%
    19:00 +1°C° 0 mm 8 m/s 733 mmHg 53%
    20:00 +1°C° 0 mm 8 m/s 733 mmHg 59%
    21:00 0°C° 0 mm 8 m/s 733 mmHg 65%
    22:00 0°C° 0 mm 8 m/s 733 mmHg 71%
    23:00 0°C° 0 mm 8 m/s 733 mmHg 70%

    Demain, 10 Avril, Vendredi

    Heure Température Précipitation Vent Pression Humidité
    00:00 -1°C° 0 mm 8 m/s 733 mmHg 69%
    01:00 -1°C° 0 mm 8 m/s 733 mmHg 68%
    02:00 -1°C° 0 mm 8 m/s 733 mmHg 68%
    03:00 -2°C° 0 mm 8 m/s 733 mmHg 68%
    04:00 -4°C° 0 mm 8 m/s 733 mmHg 68%
    05:00 -4°C° 0 mm 9 m/s 734 mmHg 68%
    06:00 -4°C° 0 mm 9 m/s 735 mmHg 68%
    07:00 -4°C° 0 mm 10 m/s 735 mmHg 69%
    08:00 -3°C° 0 mm 10 m/s 736 mmHg 66%
    09:00 -2°C° 0 mm 10 m/s 737 mmHg 63%
    10:00 0°C° 0 mm 10 m/s 738 mmHg 59%
    11:00 +1°C° 0 mm 9 m/s 738 mmHg 57%
    12:00 +1°C° 0 mm 9 m/s 739 mmHg 54%
    13:00 +2°C° 0 mm 9 m/s 739 mmHg 51%
    14:00 +2°C° 0 mm 8 m/s 740 mmHg 51%
    15:00 +2°C° 0 mm 8 m/s 740 mmHg 51%
    16:00 +2°C° 0 mm 8 m/s 741 mmHg 51%
    17:00 +1°C° 0 mm 8 m/s 741 mmHg 54%
    18:00 0°C° 0 mm 7 m/s 742 mmHg 56%
    19:00 -1°C° 0 mm 7 m/s 742 mmHg 59%
    20:00 -1°C° 0 mm 7 m/s 743 mmHg 60%
    21:00 -1°C° 0 mm 7 m/s 743 mmHg 61%
    22:00 -2°C° 0 mm 7 m/s 744 mmHg 62%
    23:00 -2°C° 0 mm 7 m/s 744 mmHg 65%

    Après-demain, 11 Avril, Samedi

    Heure Température Précipitation Vent Pression Humidité
    00:00 -2°C° 0 mm 6 m/s 744 mmHg 68%
    01:00 -1°C° 0 mm 5 m/s 745 mmHg 71%
    02:00 -1°C° 0 mm 5 m/s 745 mmHg 71%
    03:00 -2°C° 0 mm 5 m/s 745 mmHg 70%
    04:00 -2°C° 0 mm 5 m/s 746 mmHg 69%
    05:00 -2°C° 0 mm 5 m/s 746 mmHg 68%
    06:00 -2°C° 0 mm 5 m/s 747 mmHg 67%
    07:00 -1°C° 0 mm 5 m/s 747 mmHg 66%
    08:00 0°C° 0 mm 5 m/s 747 mmHg 60%
    09:00 +1°C° 0 mm 5 m/s 748 mmHg 54%
    10:00 +3°C° 0 mm 5 m/s 748 mmHg 48%
    11:00 +5°C° 0 mm 4 m/s 748 mmHg 44%
    12:00 +6°C° 0 mm 4 m/s 748 mmHg 39%
    13:00 +7°C° 0 mm 4 m/s 748 mmHg 35%
    14:00 +7°C° 0 mm 4 m/s 748 mmHg 34%
    15:00 +7°C° 0 mm 4 m/s 748 mmHg 34%
    16:00 +8°C° 0 mm 5 m/s 747 mmHg 33%
    17:00 +7°C° 0 mm 4 m/s 748 mmHg 37%
    18:00 +7°C° 0 mm 3 m/s 748 mmHg 42%
    19:00 +5°C° 0 mm 3 m/s 748 mmHg 46%
    20:00 +5°C° 0 mm 2 m/s 748 mmHg 50%
    21:00 +5°C° 0 mm 2 m/s 748 mmHg 53%
    22:00 +5°C° 0 mm 2 m/s 749 mmHg 56%
    23:00 +4°C° 0 mm 2 m/s 749 mmHg 60%

    12 Avril, Dimanche

    Heure Température Précipitation Vent Pression Humidité
    00:00 +4°C° 0 mm 2 m/s 748 mmHg 64%
    01:00 +3°C° 0 mm 3 m/s 748 mmHg 68%
    02:00 +3°C° 0 mm 3 m/s 748 mmHg 70%
    03:00 +3°C° 0 mm 3 m/s 748 mmHg 71%
    04:00 +3°C° 0 mm 3 m/s 748 mmHg 73%
    05:00 +4°C° 0.2 mm 3 m/s 748 mmHg 79%
    06:00 +4°C° 0.2 mm 3 m/s 748 mmHg 86%
    07:00 +4°C° 0.2 mm 3 m/s 748 mmHg 92%
    08:00 +4°C° 0 mm 3 m/s 748 mmHg 90%
    09:00 +5°C° 0 mm 3 m/s 748 mmHg 89%
    10:00 +7°C° 0 mm 3 m/s 748 mmHg 87%
    11:00 +7°C° 0 mm 3 m/s 748 mmHg 85%
    12:00 +8°C° 0 mm 3 m/s 747 mmHg 84%
    13:00 +8°C° 0 mm 3 m/s 747 mmHg 82%
    14:00 +8°C° 0 mm 3 m/s 746 mmHg 80%
    15:00 +8°C° 0 mm 4 m/s 746 mmHg 78%
    16:00 +8°C° 0 mm 5 m/s 745 mmHg 75%
    17:00 +8°C° 0 mm 5 m/s 744 mmHg 76%
    18:00 +8°C° 0 mm 5 m/s 744 mmHg 77%
    19:00 +8°C° 0 mm 6 m/s 743 mmHg 78%
    20:00 +8°C° 0.3 mm 5 m/s 742 mmHg 82%
    21:00 +9°C° 0.3 mm 5 m/s 741 mmHg 86%
    22:00 +10°C° 0.3 mm 4 m/s 740 mmHg 91%
    23:00 +9°C° 2.4 mm 5 m/s 738 mmHg 92%

    13 Avril, Lundi

    Heure Température Précipitation Vent Pression Humidité
    00:00 +9°C° 2.4 mm 6 m/s 736 mmHg 93%
    01:00 +9°C° 2.4 mm 7 m/s 735 mmHg 94%
    02:00 +9°C° 5.1 mm 8 m/s 733 mmHg 95%
    03:00 +8°C° 5.1 mm 9 m/s 731 mmHg 95%
    04:00 +10°C° 5.1 mm 9 m/s 728 mmHg 96%
    05:00 +10°C° 2.8 mm 9 m/s 728 mmHg 95%
    06:00 +11°C° 2.8 mm 9 m/s 727 mmHg 95%
    07:00 +12°C° 2.8 mm 9 m/s 727 mmHg 94%
    08:00 +12°C° 0.1 mm 10 m/s 727 mmHg 88%
    09:00 +12°C° 0.1 mm 11 m/s 728 mmHg 83%
    10:00 +12°C° 0.1 mm 12 m/s 729 mmHg 77%
    11:00 +12°C° 0 mm 12 m/s 730 mmHg 68%
    12:00 +12°C° 0 mm 13 m/s 732 mmHg 60%
    13:00 +12°C° 0 mm 13 m/s 733 mmHg 51%
    14:00 +9°C° 0 mm 13 m/s 734 mmHg 52%
    15:00 +8°C° 0 mm 12 m/s 736 mmHg 53%
    16:00 +5°C° 0 mm 12 m/s 737 mmHg 55%
    17:00 +4°C° 0 mm 12 m/s 738 mmHg 56%
    18:00 +3°C° 0 mm 11 m/s 739 mmHg 58%
    19:00 +2°C° 0 mm 11 m/s 740 mmHg 60%
    20:00 +1°C° 0 mm 11 m/s 741 mmHg 60%
    21:00 0°C° 0 mm 12 m/s 741 mmHg 60%
    22:00 -1°C° 0 mm 12 m/s 742 mmHg 61%
    23:00 -2°C° 0 mm 12 m/s 742 mmHg 58%

    14 Avril, Mardi

    Heure Température Précipitation Vent Pression Humidité
    00:00 -2°C° 0 mm 12 m/s 743 mmHg 56%
    01:00 -3°C° 0 mm 12 m/s 743 mmHg 53%
    02:00 -3°C° 0 mm 11 m/s 743 mmHg 52%
    03:00 -3°C° 0 mm 11 m/s 743 mmHg 50%
    04:00 -3°C° 0 mm 11 m/s 743 mmHg 48%
    05:00 -3°C° 0 mm 11 m/s 744 mmHg 49%
    06:00 -3°C° 0 mm 11 m/s 744 mmHg 50%
    07:00 -3°C° 0 mm 11 m/s 744 mmHg 51%
    08:00 -2°C° 0 mm 11 m/s 745 mmHg 50%
    09:00 -1°C° 0 mm 11 m/s 745 mmHg 49%
    10:00 +1°C° 0 mm 10 m/s 746 mmHg 47%
    11:00 +2°C° 0 mm 10 m/s 746 mmHg 43%
    12:00 +3°C° 0 mm 10 m/s 747 mmHg 39%
    13:00 +3°C° 0 mm 9 m/s 747 mmHg 35%
    14:00 +3°C° 0 mm 9 m/s 748 mmHg 34%
    15:00 +3°C° 0 mm 9 m/s 748 mmHg 33%
    16:00 +4°C° 0 mm 8 m/s 748 mmHg 32%
    17:00 +2°C° 0 mm 8 m/s 748 mmHg 35%
    18:00 +2°C° 0 mm 7 m/s 749 mmHg 39%
    19:00 +1°C° 0 mm 6 m/s 749 mmHg 43%
    20:00 -1°C° 0 mm 6 m/s 750 mmHg 49%
    21:00 0°C° 0 mm 5 m/s 750 mmHg 54%
    22:00 -1°C° 0 mm 5 m/s 751 mmHg 60%
    23:00 -1°C° 0 mm 5 m/s 751 mmHg 60%
    Voir plus